Perry, FL

11:18 AM EDT on August 29, 2016 (GMT -0400)
Perry

Weather History for K40J - October, 2012

Change the Weather History Date:

Friday, October 26, 2012

  Actual Average (KCTY) Record (KCTY)
Temperature  
Mean Temperature 75 °F 68 °F  
Max Temperature 84 °F 81 °F 87 °F (2010)
Min Temperature 66 °F 54 °F 37 °F (2005)
Degree Days  
Heating Degree Days 0 2  
Month to date heating degree days 21  
Since 1 July heating degree days 21  
Cooling Degree Days 10 4  
Month to date cooling degree days 181  
Year to date cooling degree days 2523  
Growing Degree Days 25 (Base 50)    
Moisture  
Dew Point 62 °F    
Average Humidity 72    
Maximum Humidity 93    
Minimum Humidity 43    
Precipitation  
Precipitation 0.02 in 0.08 in 0.03 in (2004)
Month to date precipitation 2.95  
Year to date precipitation 42.78  
Sea Level Pressure  
Sea Level Pressure 29.85 in    
Wind  
Wind Speed 7 mph (North)    
Max Wind Speed 16 mph    
Max Gust Speed 26 mph    
T = Trace of Precipitation, MM = Missing Value Source: NWS Daily Summary

Daily Weather History Graph

Daily Weather History Graph

Search for Another Location

Airport or City:

Trip Planner

Search our weather history database for the weather conditions in past years. The results will help you decide how hot, cold, wet, or windy it might be!

Date:

Astronomy

Oct. 26, 2012 Rise Set
Actual Time 7:44 AM EDT 6:51 PM EDT
Civil Twilight 7:19 AM EDT 7:16 PM EDT
Nautical Twilight 6:51 AM EDT 7:44 PM EDT
Astronomical Twilight 6:23 AM EDT 8:12 PM EDT
Moon 4:58 PM EDT (10/26) 4:50 AM EDT (10/26)
Length of Visible Light 11h 56m
Length of Day
11h 07m
Waxing Gibbous, 91% of the Moon is Illuminated
Oct 26
Waxing Gibbous
Oct 29
Full
Nov 6
Last Quarter
Nov 13
New
Nov 20
First Quarter

Hourly Weather History & Observations

Time (EDT) Temp. Heat Index Dew Point Humidity Pressure Visibility Wind Dir Wind Speed Gust Speed Precip Events Conditions
12:53 AM 69.1 °F - 64.9 °F 87% 29.91 in - North 3.5 mph - 0.01 in   Unknown
1:53 AM 68.0 °F - 64.9 °F 90% 29.90 in - North 5.8 mph - N/A   Unknown
2:53 AM 69.1 °F - 64.9 °F 87% 29.88 in - NNE 5.8 mph - N/A   Unknown
3:53 AM 66.9 °F - 64.9 °F 93% 29.87 in - North 5.8 mph - N/A   Unknown
4:53 AM 66.9 °F - 64.9 °F 93% 29.86 in - NNE 8.1 mph - N/A   Unknown
5:53 AM 66.0 °F - 64.0 °F 93% 29.86 in - NNE 5.8 mph - N/A   Unknown
6:53 AM 66.0 °F - 64.0 °F 93% 29.87 in - North 5.8 mph - N/A   Unknown
7:53 AM 66.0 °F - 64.0 °F 93% 29.88 in - North 5.8 mph - N/A   Unknown
8:53 AM 68.0 °F - 64.9 °F 90% 29.90 in - North 6.9 mph - N/A   Unknown
9:53 AM 71.1 °F - 64.9 °F 81% 29.91 in - North 8.1 mph - N/A   Unknown
10:53 AM 75.9 °F - 64.9 °F 69% 29.90 in - North 12.7 mph - N/A   Unknown
11:53 AM 80.1 °F 81.9 °F 64.9 °F 60% 29.88 in - North 12.7 mph 23.0 mph N/A   Unknown
12:53 PM 82.0 °F 83.4 °F 64.0 °F 54% 29.86 in - North 12.7 mph 21.9 mph N/A   Unknown
1:53 PM 82.9 °F 83.7 °F 62.1 °F 49% 29.83 in - North 13.8 mph 25.3 mph N/A   Unknown
2:53 PM 84.0 °F 84.4 °F 61.0 °F 46% 29.81 in - North 15.0 mph 23.0 mph N/A   Unknown
3:53 PM 82.9 °F 82.8 °F 59.0 °F 44% 29.79 in - North 16.1 mph 26.5 mph N/A   Unknown
4:53 PM 84.0 °F 83.8 °F 59.0 °F 43% 29.78 in - North 12.7 mph 19.6 mph N/A   Unknown
6:53 PM 77.0 °F - 57.9 °F 52% 29.79 in - North 5.8 mph - N/A   Unknown
7:53 PM 73.0 °F - 59.0 °F 61% 29.80 in - North 4.6 mph - N/A   Unknown
8:53 PM 70.0 °F - 57.9 °F 65% 29.80 in - North 4.6 mph - N/A   Unknown
9:53 PM 69.1 °F - 57.9 °F 68% 29.80 in - North 4.6 mph - 0.01 in   Unknown
10:53 PM 69.1 °F - 57.0 °F 65% 29.80 in - North 5.8 mph - N/A   Unknown
11:53 PM 66.0 °F - 55.9 °F 70% 29.80 in - North 4.6 mph - N/A   Unknown